Regional Weather Roundup
Issued by NWS

Home | Current Version | Previous Version | Graphics & Text | Print | Product List | Glossary On
Versions: 1 2 3 4 5 6 7 8 9 10 11 12 13 14 15 16 17 18 19 20 21 22 23 24 25 26 27 28 29 30 31 32 33 34 35 36 37 38 39 40 41 42 43 44 45 46 47 48 49 50
000
ASUS44 KMEG 231210
RWRTN
TENNESSEE HOURLY STATE WEATHER ROUNDUP
NATIONAL WEATHER SERVICE MEMPHIS TN
700 AM CDT WED APR 23 2014

TNZ002-004-019-021-049-052-054-088>092-231300-
WEST TENNESSEE

CITY           SKY/WX    TMP DP  RH WIND       PRES   REMARKS
MEMPHIS INTL   PTCLDY    53  41  63 CALM      30.04R
NWS MEMPHIS      N/A     47 N/A N/A MISG        N/A
JACKSON        CLEAR     41  39  93 CALM      30.05R
DYERSBURG      CLEAR     46  36  66 CALM      30.07R
UNION CITY     CLEAR     45  39  81 CALM      30.05R
PARIS          CLEAR     44  37  76 CALM      30.05R
LEXINGTON      CLEAR     41  39  93 NE3       30.03R
SAVANNAH       CLEAR     41  41 100 CALM      30.04R
$$

TNZ008-025-027-028-033-062-065-066-231300-
NORTH MIDDLE TENNESSEE

CITY           SKY/WX    TMP DP  RH WIND       PRES   REMARKS
NASHVILLE      MOSUNNY   49  38  65 NE6       30.05R
DICKSON        CLEAR     46  36  66 NE6       30.04R
PORTLAND       SUNNY     43  36  75 NE3       30.06
CLARKSVILLE    CLEAR     47  37  68 NE7       30.07R
SMYRNA         SUNNY     48  38  68 N8        30.06R
MURFREESBORO   SUNNY     48  39  71 N6        30.03R
COOKEVILLE     SUNNY     46  34  61 CALM      30.03R
LIVINGSTON     SUNNY     44  30  58 NE7       30.04R
GALLATIN       SUNNY     47  35  63 NE7       30.06R
CROSSVILLE     SUNNY     46  29  51 N8        30.03R
$$

TNZ061-075-076-078-094-096-097-231300-
SOUTH MIDDLE TENNESSEE

CITY           SKY/WX    TMP DP  RH WIND       PRES   REMARKS
LEWISBURG      SUNNY     42  39  89 CALM      30.03R
FAYETTEVILLE   SUNNY     48  39  71 N7        30.01R
TULLAHOMA      SUNNY     45  37  76 CALM      30.02R
WINCHESTER     SUNNY     43  43 100 CALM      30.02R
MCMINNVILLE    SUNNY     48  36  61 N9        30.02R
COLUMBIA       CLEAR     45  45 100 CALM      30.02R
SHELBYVILLE    SUNNY     46  41  81 N6        30.03R
$$

TNZ017-018-042-046-047-231300-
NORTHEAST TENNESSEE

CITY           SKY/WX    TMP DP  RH WIND       PRES   REMARKS
TRI CITIES     SUNNY     45  35  68 CALM      29.98R
ELIZABETHTON   SUNNY     46  27  46 W8        29.96R
$$

TNZ012-013-036-069-073-074-231300-
CENTRAL EAST TENNESSEE

CITY           SKY/WX    TMP DP  RH WIND       PRES   REMARKS
KNOXVILLE      MOSUNNY   49  36  61 CALM      30.02R
OAK RIDGE      SUNNY     51  32  48 NE7       30.03R
$$

TNZ083-085-099-231300-
SOUTHEAST TENNESSEE

CITY           SKY/WX    TMP DP  RH WIND       PRES   REMARKS
CHATTANOOGA    MOSUNNY   53  36  52 VRB3      29.99R
$$

SKY/WX REPORTED AS FAIR MEANS FEW OR NO CLOUDS BELOW
12 THOUSAND FEET.




USA.gov is the U.S. government's official web portal to all federal, state and local government web resources and services.